User: anonymous   Login
Location: Pine Mountain Observatory
(43.7910°N, 120.9377°W)
Time: 01:59:21
(UTC-08:00)
Language:

APEX - Orbit

View from above orbital plane
View from above orbital plane
View from above satellite
View from above satellite

Ground track
Ground track

The orbit data is extracted from the following two-line orbital elements,

1 23191U 94046A   14355.93641421  .00026770  00000-0  10611-2 0   801
2 23191 069.9161 130.1830 0711989 049.1749 079.9547 14.11178161986932
Epoch (UTC): 21 December 2014 22:28:26
Eccentricity: 0.0711989
inclination: 69.9161°
perigee height: 340 km
apogee height: 1370 km
right ascension of ascending node: 130.1830°
argument of perigee: 49.1749°
revolutions per day: 14.11178161
mean anomaly at epoch: 79.9547°
orbit number at epoch: 98693

The dashed part of the orbit path shows where the satellite is in the earth's shadow,  

DLR